Time,TemperatureF,DewpointF,PressureIn,WindDirection,WindDirectionDegrees,WindSpeedMPH,WindSpeedGustMPH,Humidity,HourlyPrecipIn,Conditions,Clouds,dailyrainin,SolarRadiationWatts/m^2,SoftwareType,DateUTC
2013-02-06 00:21:00,31.0,17.0,30.03,NW,310,6.0,7.0,57,-99.99,,,-99.99,0.000000,,2013-02-06 08:21:00,
2013-02-06 00:40:00,33.0,16.0,30.04,West,278,7.0,9.0,49,-99.99,,,-99.99,0.000000,,2013-02-06 08:40:00,
2013-02-06 01:21:00,33.0,16.0,30.04,West,278,7.0,9.0,49,-99.99,,,-99.99,0.000000,,2013-02-06 09:21:00,
2013-02-06 01:31:00,33.0,16.0,30.04,West,278,7.0,9.0,49,-99.99,,,-99.99,0.000000,,2013-02-06 09:31:00,
2013-02-06 01:40:00,29.0,18.0,30.05,South,180,5.0,7.0,63,-99.99,,,-99.99,0.000000,,2013-02-06 09:40:00,
2013-02-06 02:21:00,29.0,18.0,30.05,South,180,5.0,7.0,63,-99.99,,,-99.99,0.000000,,2013-02-06 10:21:00,
2013-02-06 02:31:00,29.0,18.0,30.05,South,180,5.0,7.0,63,-99.99,,,-99.99,0.000000,,2013-02-06 10:31:00,
2013-02-06 02:40:00,28.0,17.0,30.06,NE,34,3.0,5.0,65,-99.99,,,-99.99,0.000000,,2013-02-06 10:40:00,
2013-02-06 03:22:00,28.0,17.0,30.06,NE,34,3.0,5.0,65,-99.99,,,-99.99,0.000000,,2013-02-06 11:22:00,
2013-02-06 03:32:00,28.0,17.0,30.06,NE,34,3.0,5.0,65,-99.99,,,-99.99,0.000000,,2013-02-06 11:32:00,
2013-02-06 03:40:00,23.0,17.0,30.07,West,268,3.0,4.0,76,-99.99,,,-99.99,0.000000,,2013-02-06 11:40:00,
2013-02-06 04:22:00,23.0,17.0,30.07,West,268,3.0,4.0,76,-99.99,,,-99.99,0.000000,,2013-02-06 12:22:00,
2013-02-06 04:32:00,23.0,17.0,30.07,West,268,3.0,4.0,76,-99.99,,,-99.99,0.000000,,2013-02-06 12:32:00,
2013-02-06 04:40:00,23.0,16.0,30.07,NNE,25,1.0,3.0,77,-99.99,,,-99.99,0.000000,,2013-02-06 12:40:00,
2013-02-06 05:22:00,23.0,16.0,30.07,NNE,25,1.0,3.0,77,-99.99,,,-99.99,0.000000,,2013-02-06 13:22:00,
2013-02-06 05:31:00,23.0,16.0,30.07,NNE,25,1.0,3.0,77,-99.99,,,-99.99,0.000000,,2013-02-06 13:31:00,
2013-02-06 05:40:00,20.0,16.0,30.08,NNW,331,2.0,5.0,83,-99.99,,,-99.99,0.000000,,2013-02-06 13:40:00,
2013-02-06 06:21:00,20.0,16.0,30.08,NNW,331,2.0,5.0,83,-99.99,,,-99.99,0.000000,,2013-02-06 14:21:00,
2013-02-06 06:31:00,20.0,16.0,30.08,NNW,331,2.0,5.0,83,-99.99,,,-99.99,0.000000,,2013-02-06 14:31:00,
2013-02-06 07:21:00,18.0,15.0,30.09,SSW,210,2.0,3.0,86,-99.99,,,-99.99,0.000000,,2013-02-06 15:21:00,
2013-02-06 07:31:00,18.0,15.0,30.09,SSW,210,2.0,3.0,86,-99.99,,,-99.99,0.000000,,2013-02-06 15:31:00,
2013-02-06 07:40:00,21.0,17.0,30.11,NNE,28,3.0,4.0,87,-99.99,,,-99.99,70.000000,,2013-02-06 15:40:00,
2013-02-06 08:21:00,21.0,17.0,30.11,NNE,28,3.0,4.0,87,-99.99,,,-99.99,70.000000,,2013-02-06 16:21:00,
2013-02-06 08:32:00,21.0,17.0,30.11,NNE,28,3.0,4.0,87,-99.99,,,-99.99,70.000000,,2013-02-06 16:32:00,
2013-02-06 08:40:00,28.0,21.0,30.13,SSW,213,3.0,5.0,75,-99.99,,,-99.99,260.000000,,2013-02-06 16:40:00,
2013-02-06 09:21:00,28.0,21.0,30.13,SSW,213,3.0,5.0,75,-99.99,,,-99.99,260.000000,,2013-02-06 17:21:00,
2013-02-06 09:32:00,28.0,21.0,30.13,SSW,213,3.0,5.0,75,-99.99,,,-99.99,260.000000,,2013-02-06 17:32:00,
2013-02-06 09:40:00,35.0,19.0,30.13,SSW,210,1.0,3.0,52,-99.99,,,-99.99,440.000000,,2013-02-06 17:40:00,
2013-02-06 10:22:00,35.0,19.0,30.13,SSW,210,1.0,3.0,52,-99.99,,,-99.99,440.000000,,2013-02-06 18:22:00,
2013-02-06 10:32:00,35.0,19.0,30.13,SSW,210,1.0,3.0,52,-99.99,,,-99.99,440.000000,,2013-02-06 18:32:00,
2013-02-06 10:40:00,40.0,16.0,30.11,NNW,331,2.0,4.0,38,-99.99,,,-99.99,570.000000,,2013-02-06 18:40:00,
2013-02-06 11:21:00,40.0,16.0,30.11,NNW,331,2.0,4.0,38,-99.99,,,-99.99,570.000000,,2013-02-06 19:21:00,
2013-02-06 11:31:00,40.0,16.0,30.11,NNW,331,2.0,4.0,38,-99.99,,,-99.99,570.000000,,2013-02-06 19:31:00,
2013-02-06 11:40:00,43.0,14.0,30.10,NE,47,2.0,5.0,30,-99.99,,,-99.99,640.000000,,2013-02-06 19:40:00,
2013-02-06 12:21:00,43.0,14.0,30.10,NE,47,2.0,5.0,30,-99.99,,,-99.99,640.000000,,2013-02-06 20:21:00,
2013-02-06 12:31:00,43.0,14.0,30.10,NE,47,2.0,5.0,30,-99.99,,,-99.99,640.000000,,2013-02-06 20:31:00,
2013-02-06 12:40:00,46.0,11.0,30.07,NW,310,2.0,4.0,23,-99.99,,,-99.99,650.000000,,2013-02-06 20:40:00,
2013-02-06 13:21:00,46.0,11.0,30.07,NW,310,2.0,4.0,23,-99.99,,,-99.99,650.000000,,2013-02-06 21:21:00,
2013-02-06 13:32:00,46.0,11.0,30.07,NW,310,2.0,4.0,23,-99.99,,,-99.99,650.000000,,2013-02-06 21:32:00,
2013-02-06 13:40:00,49.0,12.0,30.05,NW,318,1.0,4.0,22,-99.99,,,-99.99,590.000000,,2013-02-06 21:40:00,
2013-02-06 14:21:00,49.0,12.0,30.05,NW,318,1.0,4.0,22,-99.99,,,-99.99,590.000000,,2013-02-06 22:21:00,
2013-02-06 14:31:00,49.0,12.0,30.05,NW,318,1.0,4.0,22,-99.99,,,-99.99,590.000000,,2013-02-06 22:31:00,
2013-02-06 14:40:00,51.0,5.0,30.04,SW,230,3.0,5.0,15,-99.99,,,-99.99,480.000000,,2013-02-06 22:40:00,
2013-02-06 15:21:00,51.0,5.0,30.04,SW,230,3.0,5.0,15,-99.99,,,-99.99,480.000000,,2013-02-06 23:21:00,
2013-02-06 15:31:00,51.0,5.0,30.04,SW,230,3.0,5.0,15,-99.99,,,-99.99,480.000000,,2013-02-06 23:31:00,
2013-02-06 16:40:00,47.0,18.0,30.02,West,274,4.0,5.0,32,-99.99,,,-99.99,130.000000,,2013-02-07 00:40:00,
2013-02-06 17:31:00,47.0,18.0,30.02,West,274,4.0,5.0,32,-99.99,,,-99.99,130.000000,,2013-02-07 01:31:00,
2013-02-06 17:40:00,39.0,18.0,30.01,SW,230,2.0,3.0,41,-99.99,,,-99.99,0.000000,,2013-02-07 01:40:00,
2013-02-06 18:21:00,39.0,18.0,30.01,SW,230,2.0,3.0,41,-99.99,,,-99.99,0.000000,,2013-02-07 02:21:00,
2013-02-06 18:31:00,39.0,18.0,30.01,SW,230,2.0,3.0,41,-99.99,,,-99.99,0.000000,,2013-02-07 02:31:00,
2013-02-06 18:40:00,33.0,20.0,30.03,East,100,3.0,5.0,58,-99.99,,,-99.99,0.000000,,2013-02-07 02:40:00,
2013-02-06 19:21:00,33.0,20.0,30.03,East,100,3.0,5.0,58,-99.99,,,-99.99,0.000000,,2013-02-07 03:21:00,
2013-02-06 19:31:00,33.0,20.0,30.03,East,100,3.0,5.0,58,-99.99,,,-99.99,0.000000,,2013-02-07 03:31:00,
2013-02-06 19:40:00,29.0,21.0,30.04,South,173,1.0,3.0,71,-99.99,,,-99.99,0.000000,,2013-02-07 03:40:00,
2013-02-06 20:22:00,29.0,21.0,30.04,South,173,1.0,3.0,71,-99.99,,,-99.99,0.000000,,2013-02-07 04:22:00,
2013-02-06 21:21:00,27.0,20.0,30.04,SE,130,3.0,8.0,73,-99.99,,,-99.99,0.000000,,2013-02-07 05:21:00,
2013-02-06 21:40:00,27.0,19.0,30.03,SW,236,2.0,5.0,70,-99.99,,,-99.99,0.000000,,2013-02-07 05:40:00,
2013-02-06 22:22:00,27.0,19.0,30.03,SW,236,2.0,5.0,70,-99.99,,,-99.99,0.000000,,2013-02-07 06:22:00,
2013-02-06 22:31:00,27.0,19.0,30.03,SW,236,2.0,5.0,70,-99.99,,,-99.99,0.000000,,2013-02-07 06:31:00,
2013-02-06 23:22:00,23.0,18.0,30.03,NE,42,2.0,3.0,82,-99.99,,,-99.99,0.000000,,2013-02-07 07:22:00,